sat.trackr.live / text

‹ back to catalog

STARLINK-35724

NORAD 66279 · 2025-247Q

PAYLOAD ACTIVE UNKNOWN

§ Identity

Operator
Country
US
Launch date
2025-10-31
Launch site
AFWTR
Launch vehicle
Mass (kg)
RCS (m²)

Purposes: comms

External: N2YO · Heavens-Above · Gunter

§ Orbital elements

Epoch: 2026-09-20T18:00:34.333632Z

Period
93.85 min
Inclination
53.1619°
Eccentricity
0.0001406
Mean motion
15.34411127 rev/d
Perigee alt
461.7 km
Apogee alt
463.6 km
Semi-major
6,840.8 km
B*
6.9794e-4
RAAN
2.1958°
Arg perigee
43.6331°
Mean anomaly
316.4782°
Rev number
5,094

§ Raw data

STARLINK-357241 66279U 25247Q   26263.75039738  .00023286  00000+0  69794-3 0  99992 66279  53.1619   2.1958 0001406  43.6331 316.4782 15.34411127 50941

JSON: /api/v1/satellites/66279 · /tle

For live sub-satellite position, see the globe view (requires WebGL).

§ Visibility from observer

Set your observer location to see the next 7 days of passes ≥ 10°. The values pass through the URL so the page stays shareable.

No JS? Fill the form by hand. The geolocation button needs JavaScript.